Vertical_Velocity
-5 3 -2 -5 -3 -2 -0 3 0 2 3 -15 2 0 1 -3 4 -1 -16 -3 3 -0 -1 -6 -1 3 6 3 -2 -3 3 7 -1 1 -1 -0 -2 1 1 2 -0 4 -1 -4
2 -3 -9 1 1 1 1 0 -3 3 4 -20 -0 1 -0 -1 -1 9 19 -15 26 54 49 27 26 8 -6 1 2 3 5 -0 -4 -2 1 0 3 1 5 2 3 0 0 -2
-0 -17 3 2 0 2 -1 0 -1 -7 3 -0 -6 -6 -6 -8 -2 -6 -6 33 -2 -20 -92 -33 5 20 6 0 1 -5 0 2 1 5 5 2 2 -1 -1 1 -0 2 5 -0
-4 -10 3 1 -1 2 2 -1 -0 -0 -2 -3 -5 -6 -3 -2 -5 -1 -7 13 3 -3 4 -23 -10 16 22 4 7 1 2 1 0 -2 -2 -1 0 0 4 2 3 4 3 1
-28 -0 0 1 -6 2 -12 1 1 0 0 -3 -4 -10 -12 -1 -3 -1 0 -1 19 11 3 16 7 -27 47 15 20 3 1 -0 -1 -4 -2 -1 -1 -0 2 5 4 4 -3 -1
-6 -2 1 -5 -2 -0 -1 -1 -3 -1 -0 -5 -3 -10 -7 -3 -4 -0 1 1 -2 22 -2 13 -8 -19 -8 -5 -19 28 3 -3 5 1 -2 -5 -3 -2 -1 -2 -2 1 1 3
-2 -4 -0 3 -1 -3 6 0 -4 -7 -8 -0 -0 -8 -8 -4 -3 1 2 5 3 -1 18 -4 10 10 2 -89 -12 31 6 -1 -3 -1 2 1 0 1 -3 -2 -3 -1 -1 -0
-1 -5 0 -3 -7 -5 -2 -3 -6 -4 -1 -1 -1 -3 -6 5 0 2 0 4 -2 -7 -2 12 6 32 33 37 19 18 24 17 15 16 5 2 5 -1 1 2 -0 -2 -3 -4
1 -7 -1 0 -0 -6 -17 -2 -3 -4 -1 -7 0 -8 -3 -3 -4 -3 1 -1 3 3 1 3 1 3 7 -3 4 2 2 8 5 4 3 4 16 9 3 3 5 -2 -3 -1
-12 -5 -1 -3 0 -5 -7 -7 -19 -6 -5 1 0 -0 -3 -4 1 -2 -0 1 1 2 -0 1 0 1 -3 1 0 2 1 4 5 1 1 -5 -2 2 -2 -0 -1 2 1 1
0 -5 -3 -2 0 -0 -4 -0 -3 -12 -3 -5 -1 -7 -4 -3 -2 -2 -1 4 0 1 2 -1 -1 -1 1 4 4 5 4 0 6 3 -0 -3 -2 -5 -4 -1 -2 -1 5 3
-3 -0 -1 -12 7 -2 1 2 -2 -6 -1 -1 -3 -11 -1 -3 -4 -2 -1 -0 -2 -3 2 3 -0 -3 -4 -2 -3 -3 -1 -3 -3 1 2 0 -0 -2 -4 -2 -3 -3 6 2
0 -5 -3 -11 -17 -7 -5 -2 -1 -1 -3 3 -1 -15 -0 1 -1 -2 7 -1 -0 -7 -4 1 -1 -4 -5 -2 -2 -2 -2 -3 -1 -3 -2 -0 0 2 -0 0 -0 -2 -1 3
-4 -1 -5 -7 -8 -1 1 0 0 -4 -3 -1 -5 -9 -1 -1 -1 -4 8 -2 -3 5 13 4 0 -2 -0 -1 -1 -2 -2 -2 -2 -0 -3 -2 -2 -2 3 3 2 -2 2 2
-5 -1 -3 2 1 0 -0 1 -0 0 -2 -15 -19 -0 -8 -5 -4 -5 -3 3 5 4 1 -0 -3 -3 -4 -1 0 -0 -1 0 -0 -2 -4 -4 -2 1 -2 -0 2 2 1 1
-5 -3 -1 2 0 -1 -1 -1 -0 0 -2 -0 0 0 -1 3 4 7 1 6 -0 -1 -2 -3 -6 -4 -0 -1 -1 -0 -3 -5 -3 -3 1 -0 -2 -4 -2 -2 -4 2 4 2
1 -0 -1 3 -0 -1 -8 -2 0 1 0 -1 -4 -4 0 3 1 6 2 -1 -2 -2 -2 -2 -1 0 1 -1 1 -2 -1 -2 -3 -2 -1 -2 -2 -3 -1 -2 -1 -2 -2 -1
-1 -0 -0 -1 0 -4 -28 -1 -5 -4 0 1 3 3 -1 1 7 -1 2 -5 -4 -3 -2 -2 -2 -1 1 2 2 2 -0 -1 1 -5 0 -2 -2 -2 -2 -1 -1 -1 0 -1
1 0 -1 -5 0 -6 -7 2 -6 -6 1 0 -4 3 3 3 -5 5 -3 -3 -2 -1 -0 0 2 0 6 -0 -2 -2 -1 -2 -2 -4 -1 -3 -3 -5 -3 -3 -3 -3 -3 -3
-2 -2 -7 -2 0 -1 -5 3 1 -3 -7 4 -5 1 -2 1 -3 -3 4 2 2 2 -0 -0 -1 -0 -2 -3 -1 -3 -3 -1 -1 -0 -2 -2 -1 -1 -3 -1 -2 -3 0 -7
2 -1 -3 -0 -0 -4 -0 3 -2 -1 -16 5 -2 3 -0 -5 -8 1 5 2 2 0 1 2 -1 -1 -2 -2 -1 -2 -2 -4 -1 -2 -2 -4 -3 -4 -1 -5 2 -1 -1 0
-2 -1 -0 -3 -0 2 1 -5 -9 -8 10 -2 1 2 -3 0 2 4 1 1 2 2 0 -3 -4 -4 -4 -3 -2 -3 -2 -0 -2 -0 -2 -0 -1 -1 -1 -2 -1 -0 -2 -0
-7 -8 -7 -8 -8 1 6 -6 8 -7 -6 4 -8 -1 -4 -3 3 -0 3 2 1 -1 -1 -0 -1 1 1 -1 -0 -1 -1 -2 -2 -2 -1 -1 -1 -1 3 0 -1 -7 0 1
-1 2 -3 -7 3 1 -1 3 -2 5 -1 3 5 4 4 2 2 3 -0 -0 -1 -2 -3 -2 -4 -3 -5 -3 -2 -1 -1 -2 -1 -3 -2 -1 -2 -3 3 1 -3 2 2 0
-5 -2 -0 1 3 6 8 1 -4 1 -2 -6 -3 -2 -3 2 1 -1 1 1 0 -1 -0 -2 -3 -2 -2 -5 -1 -1 -2 -4 -2 -1 -1 -0 1 -1 -3 1 2 -3 5 8
2 0 -1 -2 4 -7 2 5 -0 -4 -3 -1 -6 -3 -2 -4 -2 -3 2 -2 -3 -1 -2 1 -2 -0 -0 -1 -2 -3 -1 -1 -1 -4 -4 1 -1 -2 -2 0 -8 6 3 2
Height
1506 1514 1519 1505 1500 1492 1497 1505 1500 1500 1494 1515 1524 1526 1521 1512 1516 1537 1530 1525 1507 1511 1520 1520 1525 1532 1532 1534 1537 1541 1545 1549 1552 1555 1556 1558 1560 1564 1567 1569 1569 1571 1573 1573
1509 1516 1495 1491 1489 1491 1494 1500 1504 1498 1506 1514 1520 1529 1523 1513 1507 1511 1519 1507 1519 1522 1529 1535 1531 1527 1532 1534 1537 1541 1544 1549 1549 1551 1553 1556 1559 1561 1564 1565 1566 1568 1570 1571
1511 1497 1488 1489 1489 1496 1497 1502 1499 1505 1512 1517 1519 1542 1535 1519 1512 1501 1497 1504 1511 1514 1536 1533 1531 1534 1531 1534 1536 1538 1543 1546 1549 1550 1552 1554 1556 1558 1560 1563 1565 1566 1568 1569
1499 1487 1488 1488 1493 1493 1509 1485 1486 1492 1506 1535 1511 1561 1544 1530 1522 1510 1511 1508 1513 1517 1517 1517 1523 1535 1540 1536 1536 1538 1541 1544 1546 1548 1549 1551 1553 1555 1558 1561 1563 1564 1565 1566
1497 1488 1488 1489 1489 1486 1497 1482 1486 1489 1503 1512 1526 1552 1547 1539 1526 1515 1516 1514 1515 1514 1513 1514 1524 1532 1540 1543 1540 1540 1538 1541 1544 1545 1547 1547 1549 1552 1555 1558 1559 1563 1563 1563
1485 1479 1478 1480 1478 1479 1480 1485 1491 1492 1507 1544 1525 1543 1560 1551 1532 1521 1521 1520 1520 1524 1523 1521 1527 1530 1533 1536 1540 1539 1537 1539 1541 1542 1543 1544 1545 1548 1551 1554 1556 1558 1559 1559
1485 1481 1473 1474 1484 1479 1484 1497 1540 1544 1551 1567 1542 1541 1548 1532 1526 1521 1523 1523 1526 1529 1526 1533 1535 1539 1538 1539 1534 1539 1538 1538 1540 1541 1541 1541 1542 1545 1547 1549 1552 1553 1554 1555
1508 1511 1478 1470 1480 1490 1490 1498 1534 1554 1554 1557 1547 1560 1554 1542 1533 1526 1528 1526 1525 1532 1534 1538 1538 1542 1541 1538 1533 1537 1537 1540 1542 1541 1540 1539 1540 1542 1543 1544 1546 1548 1549 1550
1498 1496 1460 1465 1468 1475 1488 1504 1486 1518 1517 1555 1567 1558 1543 1544 1536 1535 1533 1534 1532 1535 1533 1533 1539 1538 1538 1533 1532 1533 1537 1540 1541 1538 1537 1538 1539 1540 1540 1540 1541 1542 1543 1544
1479 1500 1470 1467 1466 1468 1476 1476 1514 1521 1560 1566 1573 1563 1554 1551 1537 1540 1541 1536 1538 1539 1537 1535 1538 1542 1542 1539 1539 1538 1538 1538 1537 1535 1534 1534 1535 1535 1536 1536 1536 1537 1538 1540
1467 1481 1483 1472 1477 1484 1484 1491 1497 1521 1539 1564 1572 1563 1539 1537 1534 1531 1542 1536 1536 1541 1541 1538 1537 1540 1542 1541 1538 1537 1536 1535 1533 1532 1531 1532 1532 1532 1532 1532 1532 1532 1533 1534
1461 1476 1502 1491 1486 1479 1489 1505 1505 1537 1545 1549 1548 1557 1520 1524 1522 1534 1537 1537 1537 1541 1544 1542 1540 1540 1541 1539 1537 1536 1534 1532 1531 1531 1531 1531 1530 1529 1528 1528 1528 1527 1526 1528
1467 1489 1512 1498 1493 1481 1502 1504 1507 1517 1531 1555 1556 1554 1521 1524 1527 1534 1535 1534 1537 1543 1543 1544 1541 1540 1541 1539 1536 1534 1533 1532 1532 1531 1530 1530 1529 1528 1526 1524 1523 1522 1523 1523
1465 1479 1500 1525 1515 1510 1511 1497 1501 1519 1547 1561 1567 1539 1527 1527 1529 1533 1531 1532 1537 1542 1544 1544 1542 1542 1542 1540 1537 1535 1533 1531 1530 1529 1529 1528 1526 1525 1523 1522 1520 1518 1518 1517
1468 1491 1497 1504 1506 1506 1502 1501 1501 1519 1521 1546 1533 1532 1521 1520 1528 1532 1528 1533 1537 1541 1542 1542 1542 1543 1543 1540 1536 1533 1531 1529 1528 1526 1525 1524 1523 1521 1519 1517 1516 1516 1514 1513
1475 1490 1489 1513 1511 1509 1510 1501 1499 1501 1503 1509 1510 1528 1515 1517 1525 1529 1530 1533 1537 1540 1542 1542 1543 1543 1541 1537 1534 1531 1527 1525 1523 1521 1520 1519 1518 1516 1514 1513 1511 1510 1510 1509
1507 1503 1490 1527 1516 1515 1524 1509 1508 1505 1499 1507 1517 1516 1515 1519 1524 1528 1531 1534 1537 1540 1542 1542 1542 1541 1538 1534 1531 1527 1524 1521 1520 1518 1516 1514 1513 1511 1510 1509 1508 1506 1504 1504
1495 1494 1489 1522 1520 1531 1496 1485 1493 1503 1489 1490 1499 1507 1512 1516 1524 1528 1532 1534 1538 1541 1542 1541 1539 1537 1535 1530 1527 1524 1521 1518 1516 1514 1512 1510 1508 1507 1505 1503 1502 1501 1500 1499
1484 1488 1499 1512 1516 1496 1486 1483 1497 1492 1499 1489 1499 1506 1512 1518 1524 1532 1534 1536 1538 1539 1538 1537 1536 1534 1530 1526 1522 1520 1517 1514 1512 1510 1508 1506 1504 1501 1499 1497 1496 1495 1495 1494
1481 1478 1496 1502 1516 1521 1491 1481 1480 1481 1518 1495 1496 1504 1509 1514 1532 1533 1533 1534 1536 1535 1534 1533 1531 1528 1525 1522 1519 1516 1513 1511 1508 1506 1503 1500 1498 1496 1493 1491 1488 1487 1487 1487
1490 1487 1500 1502 1507 1494 1482 1481 1483 1505 1521 1499 1500 1504 1507 1515 1522 1527 1529 1531 1531 1531 1530 1528 1526 1525 1522 1519 1516 1513 1511 1509 1506 1503 1500 1497 1494 1491 1489 1485 1482 1480 1479 1478
1490 1497 1499 1496 1501 1511 1489 1488 1498 1502 1499 1502 1504 1507 1512 1518 1521 1524 1526 1527 1528 1527 1526 1525 1523 1521 1519 1516 1513 1510 1508 1506 1503 1500 1497 1493 1489 1486 1484 1481 1478 1476 1475 1473
1492 1483 1495 1494 1505 1492 1491 1492 1495 1498 1502 1506 1508 1512 1514 1516 1519 1521 1522 1523 1524 1524 1524 1522 1521 1519 1517 1514 1510 1507 1505 1502 1500 1497 1494 1490 1486 1483 1480 1477 1475 1473 1472 1470
1477 1475 1486 1490 1491 1490 1492 1494 1496 1499 1503 1507 1511 1513 1514 1515 1517 1518 1520 1521 1522 1522 1522 1520 1519 1516 1514 1511 1508 1506 1504 1502 1498 1495 1492 1488 1483 1480 1477 1475 1474 1472 1469 1467
1481 1478 1481 1484 1485 1488 1490 1493 1497 1500 1503 1507 1511 1513 1514 1515 1516 1518 1520 1520 1521 1521 1520 1518 1516 1515 1512 1509 1506 1503 1501 1499 1495 1492 1489 1487 1482 1478 1475 1473 1471 1469 1467 1465
1479 1482 1486 1490 1484 1487 1491 1493 1496 1500 1504 1508 1510 1513 1515 1516 1517 1518 1519 1519 1519 1519 1518 1517 1515 1514 1511 1508 1505 1502 1499 1496 1494 1491 1489 1485 1481 1478 1474 1471 1467 1467 1464 1461